www.pogodaiklimat.ru
Время
и дата
10:53 30.12
11:00 30.12
11:53 30.12
12:53 30.12
13:53 30.12
14:53 30.12
15:53 30.12
16:53 30.12
17:53 30.12
18:53 30.12
19:53 30.12
20:53 30.12
21:53 30.12
22:53 30.12
23:53 30.12
00:53 31.12
01:53 31.12
02:53 31.12
03:53 31.12
04:53 31.12
05:50 31.12
05:53 31.12
06:00 31.12
06:04 31.12
06:12 31.12
06:53 31.12
07:00 31.12
07:22 31.12
07:34 31.12
07:53 31.12
08:06 31.12
08:27 31.12
08:48 31.12
08:53 31.12
09:27 31.12
09:35 31.12
09:53 31.12
10:28 31.12
10:53 31.12
11:13 31.12
11:53 31.12
12:10 31.12
12:53 31.12
13:53 31.12
14:53 31.12
15:53 31.12
16:53 31.12
17:53 31.12
Ветер
(напр.,м/с)
Видим. Явления Облачность Т
(С)
Тd
(С)
f
(%)
Тe
(С)
Тes
(С)
Комфортность P
(гПа)
Po
(гПа)
Тmin
(С)
Tmax
(С)
R
(мм)
R24
(мм)
S
(см)
ЮЗ 2 16 км 8/8 360 м +24.4 +20.0 76 +30 +31 очень
душно
1020.3 1019.0
Ю 2 16 км 5/5 360 м +25.6 +20.6 74 +32 +34 очень
душно
1019.0
ЮЗ 2 16 км 5/5 780 м +26.7 +18.9 62 +32 +34 очень
душно
1019.3 1018.0
ЮЗ 2 16 км 2/2 1020 м +26.7 +17.8 58 +31 +35 душно 1017.9 1016.6 +16.1 +27.2
ЮЗ 1 16 км ясно +27.2 +18.3 58 +32 +39 очень
душно
1017.2 1015.9
Ю 2 16 км ясно +27.8 +17.2 52 +32 +36 душно 1016.5 1015.3
ЮЗ 2 16 км ясно +27.8 +17.2 52 +32 +35 душно 1016.5 1015.3
Ю 1 16 км ясно +26.7 +16.7 54 +30 +32 душно 1016.4 1015.3
Ю 1 16 км ясно +25.0 +17.2 62 +29 +29 душно 1016.7 1015.6
штиль 0 16 км ясно +22.8 +16.7 68 +27 +27 душно 1017.4 1016.3 +22.8 +28.3
штиль 0 16 км ясно +20.0 +16.7 81 +22 +22 комфорт 1017.9 1016.6
штиль 0 16 км ясно +19.4 +16.7 84 +21 +21 комфорт 1018.7 1017.3
Ю 1 16 км ясно +20.0 +17.2 84 +23 +23 комфорт 1018.7 1017.6
штиль 0 16 км ясно +19.4 +17.2 87 +21 +21 комфорт 1018.6 1017.3
ЮЗ 1 16 км ясно +18.9 +16.7 87 +21 +21 комфорт 1018.5 1017.3
штиль 0 16 км ясно +17.8 +16.7 93 +18 +18 1018.3 1017.0 +17.8 +22.8
штиль 0 16 км ясно +17.8 +16.7 93 +18 +18 1018.4 1017.3
ЮЗ 1 16 км ясно +17.2 +16.7 97 +18 +18 1018.0 1016.6
Ю 1 16 км ясно +17.2 +16.7 97 +17 +17 1017.5 1016.3
ЮЗ 1 13 км ясно +17.8 +17.2 96 +18 +18 1017.6 1016.3
ЮЗ 1 10 км дымка 8/8 90 м +17.0 +17.0 100 +17 +17 1017.0
З 1 10 км дымка 8/8 90 м +17.2 +16.7 97 +18 +18 1018.1 1017.0
З 1 8 км дымка 2/2 90 м +16.7 +16.1 96 +17 +17 1017.0
ЮЗ 1 2 км дымка 8/8 90 м +17.2 +16.7 97 +17 +17 1017.3
З 1 800 м туман 8/8 90 м +17.8 +17.2 96 +18 +18 1017.3
ЮЗ 1 800 м туман 8/8 90 м +18.3 +18.3 100 +19 +19 1018.5 1017.3 +16.7 +18.3
ЮЗ 1 400 м туман ?/? +18.3 +18.3 100 +19 +19 1017.3
ЮЗ 1 0 м туман ?/? +18.9 +18.9 100 +21 +21 комфорт 1017.3
ЮЗ 1 0 м туман ?/? +19.4 +18.9 97 +22 +22 комфорт 1017.3
ЮЗ 1 0 м туман ?/? +19.4 +19.4 100 +22 +22 комфорт 1019.0 1017.6
ЮЗ 1 400 м туман ?/? +20.0 +19.4 96 +24 +24 комфорт 1018.0
З 1 800 м туман ?/? +20.0 +20.0 100 +24 +24 комфорт 1018.3
З 2 400 м туман ?/? +21.0 +20.0 94 +26 +26 душно 1018.7
З 2 400 м туман ?/? +20.6 +20.0 96 +25 +25 комфорт 1019.9 1018.7
З 1 2 км дымка ?/? +20.6 +20.6 100 +26 +26 душно 1019.0
З 1 5 км дымка 10/10 60 м +20.6 +20.6 100 +26 +26 душно 1019.3
З 1 11 км 10/10 60 м +21.1 +21.1 100 +26 +26 душно 1020.5 1019.3
СЗ 1 16 км 8/8 150 м +22.8 +20.6 87 +30 +31 очень
душно
1019.3
З 1 16 км 8/8 м +24.4 +20.6 79 +30 +31 очень
душно
1020.3 1019.0
нст 1 16 км 8/8 м +25.0 +21.1 79 +32 +33 очень
душно
1018.7
ЮЗ 1 16 км 8/8 м +27.2 +20.6 67 +34 +35 очень
душно
1019.3 1018.0
ЮЗ 1 16 км 5/5 720 м +26.7 +20.0 67 +33 +36 очень
душно
1018.0
З 2 16 км 2/2 900 м +27.2 +20.0 65 +33 +38 очень
душно
1018.2 1017.0 +18.3 +27.8
ЮЗ 1 16 км 2/2 1020 м +27.8 +18.9 58 +33 +39 очень
душно
1017.5 1016.3
В 1 16 км 8/8 1260 м +26.1 +21.1 74 +33 +34 очень
душно
1017.1 1015.9
В 1 16 км ясно +25.0 +21.1 79 +32 +35 очень
душно
1017.5 1016.3
В 1 16 км ясно +24.4 +21.1 82 +31 +32 очень
душно
1017.6 1016.3
В 1 16 км ясно +23.9 +21.7 88 +31 +31 очень
душно
1018.2 1017.0
Местоположение метеостанции Melbourne International Airport: широта 28.1028 долгота -80.6458 высота над уровнем моря 10 м.
В архиве по умолчанию представлена погода в Мельбурне за последние 1-2 суток. Обновление информации о фактической погоде в базе происходит ежечасно! Архивные данные за месяц целиком и за предыдущие месяцы Вы можете получить, выбрав интересующий диапазон дат из раскрывающегося списка и нажав кнопку "Ввод!".
Внимание! Архив погоды МЕТАР в базе сайта по станциям, не включенным в климатический монитор, хранится не более 60 дней. Нет смысла пытаться выбрать более раннюю дату.
*Определитесь, кто Вы:
Внимание! Время в таблицах - местное (без учета летнего времени). Для получения всемирного времени необходимо вычесть поправку, которая равна -5 ч.
Смотрите также архив погоды в соседних городах и на ближайших метеорологических станциях:
Партнеры нашего сайта:      
Пояснения к столбцам:
  • Ветер - указаны скорость ветра в м/с - средняя за 10 мин, порывы в срок и между сроками (в фигурных скобках) и направление, откуда дует ветер: С - северный,
  • СВ - северо-восточный, В - восточный, ЮВ - юго-восточный, Ю - южный, ЮЗ - юго-западный, З - западный, СЗ - северо-западный.
  • Видимость - горизонтальная дальность видимости в метрах или километрах. При видимости от 1 до 10 км при отсутствии осадков обычно наблюдается дымка, при ухудшении видимости до 1 км и менее - туман. В сухую погоду видимость может ухудшаться дымом, пылью или мглою.
  • Явления - указаны атмосферные явления, наблюдавшиеся в срок или в последний час перед сроком; фигурными скобками обозначены явления, наблюдавшиеся между сроками (за 1-3 часа до срока); квадратными скобками обозначены град или гололедные отложения с указанием их диаметра в мм.
  • Облачность - указаны через наклонную черту общая и нижняя облачность в баллах и высота нижней границы облаков в метрах; квадратными скобками обозначены формы облаков: Ci - перистые, Cs - перисто-слоистые, Cc - перисто-кучевые, Ac - высококучевые, As - высокослоистые, Sc - слоисто-кучевые, Ns - слоисто-дождевые, Cu - кучевые, Cb - кучево-дождевые. Подробнее классификацию облаков см. в Атласе облаков (PDF).
  • T - Температура воздуха - температура, измеренная на высоте 2 м над землей.
  • Td - Температура точки росы - температура, при понижении до которой содержащийся в воздухе водяной пар достигнет насыщения.
  • f - Относительная влажность воздуха - влажноcть воздуха, измеренная на высоте 2 м над землей.
  • Te - Эффективная температура - температура, которую ощущает одетый по сезону человек в тени. Характеристика душности погоды. При расчете учитывается влияние влажности воздуха и скорости ветра на теплоощущения человека.
  • Tes - Эффективная температура на солнце - температура, которую ощущает человек, с поправкой на солнечный нагрев. Характеристика знойности погоды. Зависит от высоты солнца над горизонтом, облачности и скорости ветра. Ночью, в пасмурную погоду, а также при ветре 12 м/с и более поправка равна нулю.
  • P - Атмосферное давление - приведенное к уровню моря атмосферное давление.
  • Po - Атмосферное давление - измеренное на уровне метеостанции атмосферное давление.
  • Tmin - Минимальная температура - минимум температуры воздуха на высоте 2 м над землей.
  • Tmax - Максимальная температура - максимум температуры воздуха на высоте 2 м над землей.
  • R - Количество осадков - Количество выпавших осадков за период времени, мм. При наведении курсора мыши на число - период времени, за который выпало указанное количество осадков.
  • R24 - Количество осадков - Количество выпавших осадков за 24 часа, мм.
  • S - Снежный покров - Высота снежного покрова, см. При наведении курсора мыши на число - состояние снежного покрова и степень покрытия местности в баллах.